period_start,C,m1,H,J0,J1,J2,J3,J4,J5,JA,JB,JC,JD,JJ,JK,JN,#
2016-10-04 00:02:52,0.04,0.17,0.00,24.87,28.57,31.37,12.97,40.48,1031.77,2029.80,3462.40,3101.01,3506.36,536.37,537.34,0.01,0000 0000 0000 0000 000000
2016-10-04 00:07:53,0.04,0.00,0.00,24.83,28.57,31.41,14.54,45.52,1031.77,2030.00,3535.77,3139.97,3561.26,600.27,601.49,0.06,0000 0000 0000 0000 000000
2016-10-04 00:12:55,0.04,0.00,0.00,24.87,28.57,31.42,14.50,45.51,1031.83,2030.00,3534.34,3139.22,3560.05,599.97,601.13,0.11,0000 0000 0000 0000 000000
2016-10-04 00:17:56,0.04,0.00,0.00,24.85,28.57,31.44,14.57,45.68,1031.89,2030.00,3532.73,3138.81,3558.97,600.09,601.32,0.16,0000 0000 0000 0000 000000
2016-10-04 00:22:57,0.05,0.01,0.00,24.86,28.57,31.40,14.56,45.66,1031.86,2030.00,3531.22,3138.04,3557.70,600.01,601.12,0.21,0000 0000 0000 0000 000000
2016-10-04 00:27:58,0.04,0.01,0.00,24.86,28.57,31.44,14.63,45.75,1031.97,2030.00,3530.09,3137.50,3557.01,600.30,601.60,0.26,0000 0000 0000 0000 000000
2016-10-04 00:33:00,0.03,0.01,0.00,24.80,28.57,31.44,14.61,45.63,1032.19,2030.00,3529.67,3137.10,3556.41,600.20,601.64,0.31,0000 0000 0000 0000 000000
2016-10-04 00:38:01,0.01,0.01,0.00,24.79,28.57,31.45,14.64,45.78,1032.10,2030.00,3529.00,3137.00,3555.95,600.24,601.71,0.36,0000 0000 0000 0000 000000
2016-10-04 00:43:02,0.05,0.01,0.00,24.78,28.57,31.45,14.52,45.77,1032.03,2030.00,3527.99,3136.71,3555.06,600.10,601.66,0.41,0000 0000 0000 0000 000000
2016-10-04 00:48:03,0.04,0.02,0.00,24.82,28.57,31.43,14.61,45.86,1032.17,2030.00,3526.10,3135.98,3554.02,600.10,601.55,0.46,0000 0000 0000 0000 000000
2016-10-04 00:53:05,0.02,0.02,0.00,24.79,28.57,31.48,14.59,45.83,1032.21,2030.00,3525.89,3135.64,3553.71,599.87,601.47,0.51,0000 0000 0000 0000 000000
2016-10-04 00:58:06,0.03,0.02,0.00,24.83,28.57,31.41,14.59,45.92,1032.24,2030.00,3525.06,3135.06,3553.02,600.00,601.50,0.56,0000 0000 0000 0000 000000
2016-10-04 01:03:08,0.06,0.02,0.00,24.77,28.57,31.42,14.57,46.00,1032.24,2030.00,3523.76,3134.69,3552.07,599.94,601.47,0.61,0000 0000 0000 0000 000000
2016-10-04 01:08:09,0.14,0.03,0.00,24.80,28.57,31.46,14.64,45.76,1032.24,2030.00,3520.87,3132.81,3549.82,600.13,601.69,0.66,0000 0000 0000 0000 000000
2016-10-04 01:13:10,0.04,0.03,0.00,24.84,28.57,31.43,14.53,45.67,1032.24,2030.00,3519.48,3131.99,3548.67,599.85,601.26,0.71,0000 0000 0000 0000 000000
2016-10-04 01:18:12,0.05,0.03,0.00,24.79,28.57,31.51,14.54,45.67,1032.24,2030.00,3518.19,3131.18,3547.74,599.81,601.35,0.76,0000 0000 0000 0000 000000
2016-10-04 01:23:13,0.07,0.04,0.00,24.74,28.57,31.50,14.63,45.82,1032.24,2030.00,3516.30,3130.30,3546.53,600.15,601.95,0.81,0000 0000 0000 0000 000000
2016-10-04 01:28:14,0.09,0.04,0.00,24.78,28.57,31.51,14.56,45.86,1032.24,2030.00,3514.22,3128.87,3544.91,599.90,601.40,0.86,0000 0000 0000 0000 000000
2016-10-04 01:33:16,0.12,0.05,0.00,24.74,28.57,31.54,14.68,45.95,1032.24,2030.00,3511.26,3127.32,3542.76,600.24,601.92,0.91,0000 0000 0000 0000 000000
2016-10-04 01:38:17,0.02,0.05,0.00,24.76,28.57,31.45,14.51,45.92,1032.24,2030.00,3509.94,3126.41,3541.99,600.14,601.74,0.96,0000 0000 0000 0000 000000
2016-10-04 01:43:18,0.03,0.05,0.00,24.71,28.57,31.46,14.59,46.01,1032.24,2030.00,3509.08,3126.01,3541.34,599.90,601.45,1.01,0000 0000 0000 0000 000000
2016-10-04 01:48:19,0.00,0.05,0.00,24.74,28.57,31.54,14.54,45.92,1032.24,2029.99,3508.98,3125.99,3541.01,599.67,601.32,1.06,0000 0000 0000 0000 000000
2016-10-04 01:53:20,0.04,0.05,0.00,24.77,28.57,31.53,14.64,45.93,1032.24,2029.99,3508.20,3125.55,3540.62,600.14,601.68,1.11,0000 0000 0000 0000 000000
2016-10-04 01:58:22,0.02,0.05,0.00,24.78,28.57,31.51,14.59,45.85,1032.24,2029.99,3507.50,3125.01,3540.01,599.92,601.51,1.16,0000 0000 0000 0000 000000
2016-10-04 02:03:23,0.00,0.05,0.00,24.76,28.56,31.55,14.60,45.89,1032.24,2029.99,3507.01,3125.00,3539.98,599.79,601.42,1.21,0000 0000 0000 0000 000000
2016-10-04 02:08:24,0.03,0.06,0.00,24.74,28.55,31.57,14.59,45.91,1032.24,2029.99,3505.94,3124.40,3538.93,599.92,601.59,1.26,0000 0000 0000 0000 000000
2016-10-04 02:13:26,1.35,0.11,0.00,24.79,28.55,31.54,14.63,45.83,1032.24,2029.99,3477.26,3106.56,3519.68,600.37,601.85,1.31,0000 0000 0000 0000 000000
2016-10-04 02:18:28,0.05,0.13,0.00,24.77,28.55,31.57,14.60,45.92,1032.24,2029.99,3472.41,3103.97,3516.53,600.15,601.69,1.36,0000 0000 0000 0000 000000
2016-10-04 02:23:29,0.02,0.13,0.00,24.77,28.55,31.61,14.65,45.99,1032.24,2029.99,3471.97,3103.51,3516.02,600.52,602.08,1.41,0000 0000 0000 0000 000000
2016-10-04 02:28:31,0.01,0.13,0.00,24.74,28.55,31.58,14.55,45.90,1032.24,2029.99,3471.43,3103.04,3515.98,599.59,601.25,1.46,0000 0000 0000 0000 000000
2016-10-04 02:33:32,0.01,0.13,0.00,24.77,28.55,31.51,14.50,45.99,1032.24,2029.99,3470.88,3103.00,3515.47,599.63,601.26,1.51,0000 0000 0000 0000 000000
2016-10-04 02:38:34,0.06,0.13,0.00,24.76,28.54,31.51,14.58,46.01,1032.24,2029.98,3469.40,3102.33,3514.67,600.09,601.67,1.56,0000 0000 0000 0000 000000
2016-10-04 02:43:35,0.02,0.13,0.00,24.80,28.53,31.54,14.52,45.88,1032.24,2029.99,3468.09,3101.99,3514.02,599.73,601.24,1.61,0000 0000 0000 0000 000000
2016-10-04 02:48:37,0.03,0.13,0.00,24.79,28.52,31.55,14.57,45.90,1032.24,2029.99,3467.47,3101.70,3513.74,599.88,601.46,1.66,0000 0000 0000 0000 000000
2016-10-04 02:53:38,0.15,0.14,0.00,24.80,28.52,31.53,14.51,45.94,1032.24,2029.99,3463.76,3099.75,3511.43,599.58,601.14,1.71,0000 0000 0000 0000 000000
2016-10-04 02:58:39,0.01,0.14,0.00,24.75,28.52,31.54,14.51,46.01,1032.24,2029.99,3462.98,3099.06,3511.00,599.80,601.43,1.76,0000 0000 0000 0000 000000
2016-10-04 03:03:40,0.02,0.15,0.00,24.80,28.52,31.51,14.64,46.00,1032.24,2029.99,3462.13,3099.00,3510.52,600.06,601.56,1.81,0000 0000 0000 0000 000000
2016-10-04 03:08:42,0.01,0.15,0.00,24.78,28.51,31.49,14.58,45.93,1032.24,2029.99,3461.65,3098.95,3510.01,600.05,601.60,1.86,0000 0000 0000 0000 000000
2016-10-04 03:13:43,0.03,0.15,0.00,24.80,28.50,31.49,14.65,45.91,1032.25,2029.99,3460.99,3098.20,3509.93,600.18,601.72,1.91,0000 0000 0000 0000 000000
2016-10-04 03:18:44,0.02,0.15,0.00,24.75,28.50,31.52,14.65,45.97,1032.25,2029.99,3460.23,3098.00,3509.17,599.89,601.49,1.96,0000 0000 0000 0000 000000
2016-10-04 03:23:45,0.00,0.15,0.00,24.80,28.50,31.52,14.66,45.94,1032.26,2029.99,3459.92,3097.99,3509.00,599.85,601.43,2.01,0000 0000 0000 0000 000000
2016-10-04 03:28:47,0.06,0.15,0.00,24.81,28.50,31.56,14.62,46.06,1032.26,2030.00,3458.71,3097.56,3508.50,599.97,601.46,2.06,0000 0000 0000 0000 000000
2016-10-04 03:33:48,0.05,0.16,0.00,24.82,28.49,31.49,14.61,45.96,1032.27,2030.00,3457.06,3096.43,3507.09,600.08,601.40,2.11,0000 0000 0000 0000 000000
2016-10-04 03:38:49,0.01,0.16,0.00,24.82,28.48,31.48,14.52,45.84,1032.26,2030.01,3456.64,3096.03,3507.00,599.88,601.39,2.17,0000 0000 0000 0000 000000
2016-10-04 03:43:51,0.01,0.16,0.00,24.81,28.47,31.50,14.62,45.86,1032.25,2030.02,3456.01,3095.99,3506.74,600.25,601.64,2.22,0000 0000 0000 0000 000000
2016-10-04 03:48:52,0.02,0.16,0.00,24.83,28.47,31.46,14.63,45.98,1032.26,2030.02,3455.26,3095.80,3506.04,599.95,601.57,2.27,0000 0000 0000 0000 000000
2016-10-04 03:53:53,0.02,0.16,0.00,24.84,28.47,31.48,14.51,45.92,1032.26,2030.01,3454.95,3095.11,3505.84,599.87,601.40,2.32,0000 0000 0000 0000 000000
2016-10-04 03:58:55,0.06,0.16,0.00,24.83,28.46,31.48,14.56,45.70,1032.27,2030.01,3453.64,3094.69,3504.80,599.99,601.49,2.37,0000 0000 0000 0000 000000
2016-10-04 04:03:56,0.07,0.16,0.00,24.86,28.45,31.56,14.62,45.91,1032.26,2030.01,3451.81,3093.65,3503.69,599.97,601.45,2.42,0000 0000 0000 0000 000000
2016-10-04 04:08:57,0.09,0.17,0.00,24.87,28.45,31.50,14.61,45.92,1032.27,2030.03,3449.64,3092.27,3502.01,599.82,601.30,2.47,0000 0000 0000 0000 000000
2016-10-04 04:13:58,0.05,0.17,0.00,24.84,28.45,31.46,14.63,45.92,1032.28,2030.04,3448.31,3091.28,3501.03,600.54,601.90,2.52,0000 0000 0000 0000 000000
2016-10-04 04:19:00,0.00,0.17,0.00,24.86,28.44,31.43,14.64,45.89,1032.26,2030.03,3448.00,3091.02,3500.97,599.92,601.42,2.57,0000 0000 0000 0000 000000
2016-10-04 04:24:00,0.01,0.17,0.00,24.84,28.43,31.43,14.56,45.86,1032.28,2030.07,3447.99,3091.01,3500.85,600.02,601.54,2.62,0000 0000 0000 0000 000000
2016-10-04 04:29:02,0.01,0.18,0.00,24.88,28.42,31.40,14.55,45.88,1032.29,2030.06,3447.72,3091.00,3500.31,599.86,601.24,2.67,0000 0000 0000 0000 000000
2016-10-04 04:34:03,0.04,0.18,0.00,24.89,28.42,31.38,14.57,45.80,1032.30,2030.03,3446.66,3090.52,3499.83,600.20,601.53,2.72,0000 0000 0000 0000 000000
2016-10-04 04:39:04,0.03,0.18,0.00,24.87,28.42,31.41,14.59,45.98,1032.43,2030.15,3446.02,3090.05,3499.37,600.24,601.74,2.77,0000 0000 0000 0000 000000
2016-10-04 04:44:06,0.01,0.18,0.00,24.87,28.40,31.40,14.51,45.85,1032.51,2030.09,3445.47,3089.98,3499.00,599.93,601.49,2.82,0000 0000 0000 0000 000000
2016-10-04 04:49:07,0.07,0.18,0.00,24.86,28.40,31.44,14.57,45.87,1032.60,2030.16,3444.57,3089.40,3498.32,600.23,601.77,2.87,0000 0000 0000 0000 000000
2016-10-04 04:54:08,0.00,0.18,0.00,24.84,28.40,31.43,14.62,45.86,1032.64,2030.19,3444.00,3089.01,3497.99,600.34,601.99,2.92,0000 0000 0000 0000 000000
2016-10-04 04:59:09,0.06,0.18,0.00,24.87,28.39,31.43,14.60,45.98,1032.51,2030.20,3443.16,3088.47,3497.15,599.84,601.39,2.97,0000 0000 0000 0000 000000
2016-10-04 05:04:10,0.02,0.19,0.00,24.88,28.37,31.40,14.52,45.94,1032.55,2030.35,3442.59,3088.04,3496.99,599.76,601.31,3.02,0000 0000 0000 0000 000000
2016-10-04 05:09:12,0.04,0.19,0.00,24.95,28.37,31.35,14.57,45.85,1032.68,2030.52,3441.67,3087.93,3496.23,600.07,601.59,3.07,0000 0000 0000 0000 000000
2016-10-04 05:14:13,0.02,0.19,0.00,24.83,28.37,31.35,14.54,45.96,1032.67,2030.46,3440.87,3087.19,3495.78,599.93,601.60,3.12,0000 0000 0000 0000 000000
2016-10-04 05:19:14,0.09,0.19,0.00,24.90,28.37,31.33,14.54,45.92,1032.65,2030.70,3439.73,3086.44,3494.94,600.02,601.59,3.17,0000 0000 0000 0000 000000
2016-10-04 05:24:15,0.01,0.20,0.00,24.90,28.35,31.33,14.63,45.85,1032.70,2030.63,3438.93,3086.02,3494.16,600.37,601.90,3.22,0000 0000 0000 0000 000000
2016-10-04 05:29:17,0.06,0.20,0.00,24.88,28.35,31.38,14.51,45.81,1032.67,2030.69,3437.92,3085.61,3493.64,599.86,601.29,3.27,0000 0000 0000 0000 000000
2016-10-04 05:34:18,0.03,0.20,0.00,24.86,28.35,31.35,14.51,45.89,1032.69,2030.75,3436.94,3084.96,3492.89,600.04,601.77,3.32,0000 0000 0000 0000 000000
2016-10-04 05:39:19,0.09,0.20,0.00,24.88,28.35,31.30,14.63,45.86,1032.73,2030.90,3435.56,3083.96,3491.75,600.16,601.90,3.37,0000 0000 0000 0000 000000
2016-10-04 05:44:21,0.04,0.21,0.00,24.88,28.35,31.33,14.54,45.76,1032.73,2030.90,3434.15,3083.05,3490.93,599.85,601.60,3.42,0000 0000 0000 0000 000000
2016-10-04 05:49:22,0.08,0.21,0.00,24.87,28.33,31.33,14.53,45.96,1032.73,2030.95,3432.71,3082.27,3489.69,599.75,601.45,3.47,0000 0000 0000 0000 000000
2016-10-04 05:54:23,0.06,0.21,0.00,24.86,28.32,31.34,14.60,45.89,1032.73,2030.92,3430.85,3081.03,3488.44,600.43,602.12,3.52,0000 0000 0000 0000 000000
2016-10-04 05:59:25,0.08,0.22,0.00,24.86,28.32,31.34,14.56,45.80,1032.73,2030.93,3429.22,3079.99,3487.23,599.72,601.41,3.57,0000 0000 0000 0000 000000
2016-10-04 06:04:26,0.10,0.22,0.00,24.88,28.32,31.30,14.56,45.84,1032.73,2030.98,3426.89,3078.59,3485.55,599.83,601.54,3.62,0000 0000 0000 0000 000000
2016-10-04 06:09:27,0.06,0.23,0.00,24.85,28.32,31.30,14.59,45.80,1032.75,2030.97,3425.06,3077.55,3484.22,599.94,601.91,3.67,0000 0000 0000 0000 000000
2016-10-04 06:14:28,0.08,0.23,0.00,24.86,28.32,31.29,14.61,45.74,1032.75,2030.98,3423.08,3076.31,3482.84,599.84,601.57,3.72,0000 0000 0000 0000 000000
2016-10-04 06:19:29,0.11,0.24,0.00,24.93,28.31,31.29,14.57,45.81,1032.76,2030.98,3420.70,3074.67,3481.19,599.66,601.24,3.77,0000 0000 0000 0000 000000
2016-10-04 06:24:31,0.03,0.24,0.00,24.91,28.30,31.29,14.56,45.90,1032.75,2030.98,3419.38,3074.01,3480.09,599.71,601.39,3.82,0000 0000 0000 0000 000000
2016-10-04 06:29:32,0.00,0.24,0.00,24.87,28.30,31.29,14.54,45.84,1032.76,2030.99,3418.93,3073.98,3479.99,600.05,601.73,3.87,0000 0000 0000 0000 000000
2016-10-04 06:34:33,0.04,0.24,0.00,24.88,28.30,31.30,14.64,45.96,1032.80,2030.98,3418.01,3073.48,3479.58,600.24,601.96,3.92,0000 0000 0000 0000 000000
2016-10-04 06:39:34,0.08,0.25,0.00,24.88,28.30,31.30,14.55,45.68,1032.85,2030.98,3416.10,3072.32,3478.19,599.89,601.62,3.97,0000 0000 0000 0000 000000
2016-10-04 06:44:36,0.04,0.25,0.00,24.90,28.30,31.27,14.57,45.86,1032.76,2030.99,3414.93,3071.70,3477.13,599.90,601.53,4.02,0000 0000 0000 0000 000000
2016-10-04 06:49:37,0.10,0.25,0.00,24.89,28.30,31.29,14.59,45.87,1032.75,2030.95,3413.03,3070.34,3475.75,599.99,601.71,4.07,0000 0000 0000 0000 000000
2016-10-04 06:54:39,0.06,0.26,0.00,24.89,28.29,31.30,14.59,45.83,1032.83,2030.98,3411.16,3069.07,3474.22,600.13,601.95,4.12,0000 0000 0000 0000 000000
2016-10-04 06:59:40,0.03,0.26,0.00,24.89,28.29,31.28,14.63,45.79,1033.04,2030.97,3410.28,3068.77,3473.82,600.59,602.41,4.17,0000 0000 0000 0000 000000
2016-10-04 07:04:41,0.09,0.26,0.00,24.88,28.27,31.26,14.57,45.83,1033.15,2030.99,3408.45,3067.58,3472.49,600.15,602.07,4.22,0000 0000 0000 0000 000000
2016-10-04 07:09:42,0.05,0.26,0.00,24.89,28.27,31.26,14.58,45.66,1033.20,2030.99,3407.00,3066.69,3471.36,599.96,601.95,4.27,0000 0000 0000 0000 000000
2016-10-04 07:14:44,0.08,0.27,0.00,24.92,28.27,31.25,14.65,45.73,1033.21,2030.99,3405.40,3065.66,3470.30,600.61,602.37,4.32,0000 0000 0000 0000 000000
2016-10-04 07:19:46,0.07,0.27,0.00,24.93,28.27,31.26,14.57,45.88,1033.22,2030.99,3403.20,3064.20,3468.92,599.80,601.61,4.37,0000 0000 0000 0000 000000
2016-10-04 07:24:47,0.05,0.28,0.00,24.87,28.27,31.26,14.54,45.75,1033.22,2030.99,3402.05,3063.61,3467.99,599.94,601.89,4.42,0000 0000 0000 0000 000000
2016-10-04 07:29:49,0.05,0.28,0.00,24.91,28.27,31.24,14.60,45.58,1033.22,2030.99,3400.78,3062.82,3467.01,600.08,602.01,4.47,0000 0000 0000 0000 000000
2016-10-04 07:34:50,0.08,0.28,0.00,24.93,28.27,31.21,14.59,45.71,1033.22,2030.99,3399.00,3061.62,3465.64,600.15,602.01,4.53,0000 0000 0000 0000 000000
2016-10-04 07:39:51,0.04,0.29,0.00,24.87,28.27,31.20,14.50,45.77,1033.22,2030.99,3397.26,3060.91,3464.62,599.73,601.83,4.58,0000 0000 0000 0000 000000
2016-10-04 07:44:53,0.04,0.29,0.00,24.93,28.27,31.24,14.61,45.74,1033.22,2030.99,3396.56,3060.11,3463.93,600.05,601.85,4.63,0000 0000 0000 0000 000000
2016-10-04 07:49:54,0.07,0.29,0.00,24.90,28.27,31.20,14.57,45.90,1033.22,2030.99,3394.94,3059.13,3462.63,600.12,602.00,4.68,0000 0000 0000 0000 000000
2016-10-04 07:54:55,0.01,0.29,0.00,24.92,28.27,31.22,14.59,45.89,1033.22,2030.99,3394.09,3058.97,3462.03,599.63,601.40,4.73,0000 0000 0000 0000 000000
2016-10-04 07:59:56,0.04,0.29,0.00,24.90,28.27,31.21,14.58,45.95,1033.23,2030.99,3393.46,3058.25,3461.74,599.99,601.99,4.78,0000 0000 0000 0000 000000
2016-10-04 08:04:58,0.01,0.30,0.00,24.88,28.27,31.18,14.65,45.71,1033.22,2030.99,3392.97,3058.00,3461.04,599.87,601.84,4.83,0000 0000 0000 0000 000000
2016-10-04 08:10:00,0.07,0.30,0.00,24.93,28.27,31.21,14.57,45.56,1033.22,2030.99,3390.99,3057.16,3460.17,599.80,601.59,4.88,0000 0000 0000 0000 000000
2016-10-04 08:15:01,0.13,0.30,0.00,24.88,28.27,31.20,14.55,45.51,1033.22,2030.99,3388.57,3055.66,3458.52,599.54,601.48,4.93,0000 0000 0000 0000 000000
2016-10-04 08:20:02,0.20,0.32,0.00,24.95,28.27,31.19,14.53,45.51,1033.22,2030.99,3383.76,3052.51,3454.85,599.88,601.63,4.98,0000 0000 0000 0000 000000
2016-10-04 08:25:04,0.02,0.32,0.00,24.88,28.27,31.19,14.54,45.67,1033.22,2030.99,3382.28,3051.88,3454.00,600.16,602.19,5.03,0000 0000 0000 0000 000000
2016-10-04 08:30:05,0.04,0.32,0.00,24.88,28.27,31.21,14.61,45.71,1033.22,2030.99,3381.49,3051.10,3453.44,600.00,601.93,5.08,0000 0000 0000 0000 000000
2016-10-04 08:35:06,0.00,0.32,0.00,24.92,28.27,31.21,14.58,45.64,1033.22,2030.99,3381.01,3051.00,3453.02,600.02,601.79,5.13,0000 0000 0000 0000 000000
2016-10-04 08:40:07,0.05,0.32,0.00,24.94,28.27,31.20,14.57,45.65,1033.22,2030.99,3380.17,3050.59,3452.53,600.07,601.92,5.18,0000 0000 0000 0000 000000
2016-10-04 08:45:08,0.04,0.32,0.00,24.87,28.27,31.20,14.51,45.73,1033.23,2030.99,3378.73,3049.99,3451.74,599.80,601.99,5.23,0000 0000 0000 0000 000000
2016-10-04 08:50:09,0.03,0.33,0.00,24.87,28.27,31.20,14.57,45.82,1033.22,2030.98,3378.02,3049.42,3451.06,599.86,601.82,5.28,0000 0000 0000 0000 000000
2016-10-04 08:55:10,0.02,0.33,0.00,24.91,28.27,31.17,14.55,45.83,1033.22,2030.99,3377.34,3049.02,3450.99,599.72,601.60,5.33,0000 0000 0000 0000 000000
2016-10-04 09:00:12,0.01,0.33,0.00,24.92,28.27,31.18,14.59,45.88,1033.22,2030.99,3376.83,3048.97,3450.28,600.18,601.88,5.38,0000 0000 0000 0000 000000
2016-10-04 09:05:13,0.04,0.33,0.00,24.93,28.27,31.21,14.60,45.71,1033.23,2030.99,3375.85,3048.18,3449.83,600.16,601.95,5.43,0000 0000 0000 0000 000000
2016-10-04 09:10:15,0.02,0.33,0.00,24.85,28.27,31.17,14.55,45.73,1033.24,2030.99,3375.04,3048.00,3449.10,599.94,601.91,5.48,0000 0000 0000 0000 000000
2016-10-04 09:15:16,0.02,0.33,0.00,24.87,28.27,31.17,14.61,45.85,1033.23,2030.99,3374.24,3047.80,3448.92,599.97,601.95,5.53,0000 0000 0000 0000 000000
2016-10-04 09:20:17,0.04,0.34,0.00,24.90,28.27,31.19,14.62,45.81,1033.24,2030.99,3373.11,3047.04,3448.11,600.12,602.05,5.58,0000 0000 0000 0000 000000
2016-10-04 09:25:19,0.02,0.34,0.00,24.93,28.27,31.20,14.53,45.72,1033.24,2030.99,3372.18,3046.92,3447.87,599.91,601.76,5.63,0000 0000 0000 0000 000000
2016-10-04 09:30:20,0.03,0.34,0.00,24.85,28.27,31.17,14.66,45.72,1033.25,2030.99,3371.88,3046.28,3447.13,600.26,602.30,5.68,0000 0000 0000 0000 000000
2016-10-04 09:35:21,0.02,0.34,0.00,24.88,28.27,31.17,14.60,45.79,1033.25,2030.99,3371.07,3046.01,3446.90,599.91,601.88,5.73,0000 0000 0000 0000 000000
2016-10-04 09:40:23,0.01,0.34,0.00,24.93,28.27,31.20,14.57,45.79,1033.27,2030.99,3370.85,3046.00,3446.18,600.18,602.04,5.78,0000 0000 0000 0000 000000
2016-10-04 09:45:24,0.01,0.34,0.00,24.86,28.27,31.19,14.58,45.77,1033.43,2030.99,3370.13,3045.93,3446.00,600.03,602.26,5.83,0000 0000 0000 0000 000000
2016-10-04 09:50:25,0.01,0.34,0.00,24.88,28.27,31.21,14.53,45.77,1033.54,2030.99,3370.00,3045.56,3445.98,599.95,602.33,5.88,0000 0000 0000 0000 000000
2016-10-04 09:55:26,0.03,0.34,0.00,24.88,28.27,31.17,14.61,45.88,1033.63,2031.00,3369.45,3045.06,3445.49,600.47,602.75,5.93,0000 0000 0000 0000 000000
2016-10-04 10:00:28,0.02,0.34,0.00,24.94,28.27,31.21,14.55,45.88,1033.63,2031.00,3368.49,3044.98,3444.93,600.03,602.06,5.98,0000 0000 0000 0000 000000
2016-10-04 10:05:29,0.02,0.35,0.00,24.91,28.27,31.19,14.56,45.74,1033.58,2031.00,3368.00,3044.68,3444.20,600.01,602.13,6.03,0000 0000 0000 0000 000000
2016-10-04 10:10:30,0.03,0.35,0.00,24.88,28.27,31.17,14.64,45.80,1033.54,2031.00,3367.35,3044.05,3443.89,600.42,602.55,6.08,0000 0000 0000 0000 000000
2016-10-04 10:15:32,0.05,0.35,0.00,24.91,28.27,31.17,14.54,45.85,1033.63,2031.00,3366.07,3043.44,3442.92,599.97,602.09,6.13,0000 0000 0000 0000 000000
2016-10-04 10:20:33,0.02,0.35,0.00,24.95,28.27,31.17,14.53,45.86,1033.68,2031.00,3365.07,3043.01,3442.15,599.47,601.58,6.18,0000 0000 0000 0000 000000
2016-10-04 10:25:34,0.01,0.35,0.00,24.89,28.27,31.16,14.63,45.91,1033.70,2031.00,3364.70,3042.97,3441.99,600.50,602.71,6.23,0000 0000 0000 0000 000000
2016-10-04 10:30:36,0.04,0.35,0.00,24.89,28.27,31.20,14.59,45.92,1033.71,2031.00,3363.96,3042.28,3441.30,599.87,602.12,6.28,0000 0000 0000 0000 000000
2016-10-04 10:35:37,0.01,0.36,0.00,24.89,28.27,31.22,14.59,45.87,1033.71,2030.99,3363.10,3042.00,3440.96,599.86,602.15,6.33,0000 0000 0000 0000 000000
2016-10-04 10:40:38,0.02,0.36,0.00,24.90,28.27,31.19,14.65,45.97,1033.71,2030.99,3362.54,3041.96,3440.26,600.14,602.17,6.38,0000 0000 0000 0000 000000
2016-10-04 10:45:39,0.01,0.36,0.00,24.90,28.27,31.18,14.56,45.93,1033.71,2030.99,3362.02,3041.77,3440.00,600.02,602.16,6.43,0000 0000 0000 0000 000000
2016-10-04 10:50:41,0.01,0.36,0.00,24.90,28.28,31.21,14.59,45.85,1033.71,2030.99,3361.97,3041.59,3439.99,600.35,602.59,6.48,0000 0000 0000 0000 000000
2016-10-04 10:55:42,0.03,0.36,0.00,24.88,28.28,31.19,14.60,45.88,1033.72,2031.00,3361.50,3041.25,3439.79,600.40,602.73,6.53,0000 0000 0000 0000 000000
2016-10-04 11:00:43,0.01,0.36,0.00,24.90,28.29,31.19,14.63,46.04,1033.72,2031.00,3361.01,3041.02,3439.08,600.38,602.38,6.58,0000 0000 0000 0000 000000
2016-10-04 11:05:44,0.00,0.36,0.00,24.87,28.29,31.17,14.59,46.09,1033.72,2031.00,3360.92,3041.00,3438.99,599.94,602.27,6.63,0000 0000 0000 0000 000000
2016-10-04 11:10:46,0.02,0.36,0.00,24.91,28.30,31.18,14.52,45.95,1033.72,2031.00,3360.18,3041.00,3438.71,599.75,601.95,6.68,0000 0000 0000 0000 000000
2016-10-04 11:15:47,0.00,0.36,0.00,24.87,28.30,31.18,14.58,45.71,1033.72,2031.00,3360.00,3040.98,3438.13,600.25,602.54,6.73,0000 0000 0000 0000 000000
2016-10-04 11:20:48,0.00,0.36,0.00,24.92,28.30,31.19,14.55,45.83,1033.71,2031.00,3359.82,3040.97,3438.00,599.79,602.02,6.78,0000 0000 0000 0000 000000
2016-10-04 11:25:50,0.04,0.36,0.00,24.96,28.30,31.20,14.55,45.77,1033.71,2031.00,3358.95,3040.36,3437.62,599.86,601.92,6.84,0000 0000 0000 0000 000000
2016-10-04 11:30:51,0.02,0.37,0.00,24.90,28.30,31.18,14.58,45.92,1033.71,2031.00,3358.04,3040.00,3436.99,599.81,602.11,6.89,0000 0000 0000 0000 000000
2016-10-04 11:35:52,0.02,0.37,0.00,24.93,28.30,31.18,14.48,45.72,1033.72,2031.00,3357.41,3039.99,3436.47,599.36,601.53,6.94,0000 0000 0000 0000 000000
2016-10-04 11:40:54,0.01,0.37,0.00,24.93,28.30,31.17,14.55,45.80,1033.72,2031.00,3357.02,3039.98,3436.06,599.76,601.89,6.99,0000 0000 0000 0000 000000
2016-10-04 11:45:55,0.00,0.37,0.00,24.91,28.31,31.20,14.57,45.77,1033.71,2031.00,3356.90,3039.87,3435.98,599.87,602.11,7.04,0000 0000 0000 0000 000000
2016-10-04 11:50:56,0.04,0.37,0.00,24.91,28.32,31.22,14.57,45.83,1033.72,2031.00,3356.08,3039.20,3435.38,599.75,601.95,7.09,0000 0000 0000 0000 000000
2016-10-04 11:55:57,0.02,0.37,0.00,24.90,28.32,31.22,14.56,45.91,1033.71,2031.00,3355.46,3039.00,3434.98,600.11,602.39,7.14,0000 0000 0000 0000 000000
2016-10-04 12:00:59,0.03,0.37,0.00,24.88,28.32,31.24,14.62,45.97,1033.71,2031.00,3354.74,3038.64,3434.29,600.25,602.58,7.19,0000 0000 0000 0000 000000
2016-10-04 12:06:00,0.03,0.37,0.00,24.89,28.32,31.20,14.51,45.94,1033.72,2030.99,3353.77,3038.05,3433.68,599.41,601.69,7.24,0000 0000 0000 0000 000000
2016-10-04 12:11:01,0.01,0.38,0.00,24.90,28.32,31.22,14.57,45.92,1033.72,2030.99,3353.05,3037.99,3433.03,600.40,602.74,7.29,0000 0000 0000 0000 000000
2016-10-04 12:16:02,0.01,0.38,0.00,24.87,28.32,31.21,14.55,45.98,1033.73,2030.99,3352.72,3037.91,3432.95,599.87,602.21,7.34,0000 0000 0000 0000 000000
2016-10-04 12:21:03,0.05,0.38,0.00,24.92,28.33,31.22,14.67,45.90,1033.72,2030.99,3351.83,3037.17,3432.17,600.27,602.47,7.39,0000 0000 0000 0000 000000
2016-10-04 12:26:05,0.02,0.38,0.00,24.95,28.34,31.22,14.57,45.74,1033.72,2030.98,3350.99,3037.00,3431.68,600.09,602.16,7.44,0000 0000 0000 0000 000000
2016-10-04 12:31:06,0.01,0.38,0.00,24.88,28.35,31.21,14.70,45.88,1033.73,2030.99,3350.60,3036.99,3431.08,600.40,602.52,7.49,0000 0000 0000 0000 000000
2016-10-04 12:36:07,0.03,0.38,0.00,24.89,28.35,31.22,14.58,45.76,1033.76,2030.99,3349.82,3036.68,3430.91,599.57,601.88,7.54,0000 0000 0000 0000 000000
2016-10-04 12:41:08,0.03,0.38,0.00,24.91,28.35,31.22,14.53,45.82,1033.77,2030.99,3348.84,3036.04,3430.10,599.89,602.05,7.59,0000 0000 0000 0000 000000
2016-10-04 12:46:09,0.05,0.39,0.00,24.88,28.35,31.23,14.60,45.80,1033.77,2030.99,3347.73,3035.65,3429.35,599.96,602.30,7.64,0000 0000 0000 0000 000000
2016-10-04 12:51:11,0.01,0.39,0.00,24.92,28.35,31.23,14.53,45.81,1033.78,2030.98,3347.02,3035.06,3429.00,599.61,601.89,7.69,0000 0000 0000 0000 000000
2016-10-04 12:56:12,0.02,0.39,0.00,24.95,28.35,31.25,14.50,45.82,1033.73,2030.98,3346.56,3035.00,3428.48,599.83,602.01,7.74,0000 0000 0000 0000 000000
2016-10-04 13:01:14,0.02,0.39,0.00,24.95,28.36,31.24,14.61,45.75,1033.71,2030.98,3345.55,3034.85,3427.93,600.41,602.51,7.79,0000 0000 0000 0000 000000